Regional Weather Roundup
Issued by NWS

Home | Current Version | Previous Version | Graphics & Text | Print | Product List | Glossary On
Versions: 1 2 3 4 5 6 7 8 9 10 11 12 13 14 15 16 17 18 19 20 21 22 23 24 25 26 27 28 29 30 31 32 33 34 35 36 37 38 39 40 41 42 43 44 45 46 47 48 49 50
000
ASUS45 KABQ 221210
RWRNM
WEATHER ROUNDUP FOR NEW MEXICO
NATIONAL WEATHER SERVICE ALBUQUERQUE NM
600 AM MDT WED OCT 22 2014

NOTE: "FAIR" MEANS FEW OR NO CLOUDS BELOW 12,000 FEET AGL WITH NO
       SIGNIFICANT WEATHER OR OBSTRUCTIONS TO VISION.

      THIS PRODUCT IS RELEASED AS TWO VERSIONS.  ONE VERSION NEAR
      THE TOP OF THE HOUR CONTAINING PRELIMINARY DATA FROM ALBUQUERQUE
      AND OTHER STATIONS.  A FINAL VERSION WITH ADDITIONAL DATA IS
      ISSUED ABOUT 10 MINUTES AFTER THE HOUR.

NMZ501-503-504-510>518-221300-
NORTHWEST PLATEAU/NORTHCENTRAL MOUNTAINS

CITY           SKY/WX    TMP DP  RH WIND       PRES   REMARKS
FARMINGTON     CLEAR     44  40  85 NE5       30.12R
6HR MIN TEMP:  44; 6HR MAX TEMP:  52;

LOS ALAMOS     CLEAR     47  46  96 N3        30.21R
SANTA FE       CLOUDY    48  46  93 S5        30.17R
6HR MIN TEMP:  46; 6HR MAX TEMP:  52;

TAOS           CLOUDY    43  39  87 CALM      30.21R
ANGEL FIRE     FAIR      42  39  87 CALM      30.24S

$$
NMZ402-403-502-505>509-221300-
WESTCENTRAL MOUNTAINS/SOUTHWEST MOUNTAINS

CITY           SKY/WX    TMP DP  RH WIND       PRES   REMARKS
GALLUP         CLEAR     40  37  89 CALM      30.18R
6HR MIN TEMP:  40; 6HR MAX TEMP:  48;

GRANTS           N/A     36  36 100 W5        30.21R FOG     WCI  32
SILVER CITY    CLEAR     48  46  93 N8        30.15S

$$
NMZ407-409-411-412-221300-
SOUTHERN DESERTS

CITY           SKY/WX    TMP DP  RH WIND       PRES   REMARKS
LORDSBURG      FAIR      54  50  87 MISG      30.08R
DEMING         CLEAR     51  50  96 E6        30.09R
6HR MIN TEMP:  51; 6HR MAX TEMP:  58;

LAS CRUCES     CLEAR     51  50  94 CALM      30.11S
HOLLOMAN AFB   PTCLDY    50  49  95 NE6       30.10R
T OR C         CLEAR     51  48  89 NW7       30.12R
6HR MIN TEMP:  51; 6HR MAX TEMP:  56;


$$
NMZ519>523-221300-
CENTRAL VALLEYS/CENTRAL HIGHLANDS

CITY           SKY/WX    TMP DP  RH WIND       PRES   REMARKS
ALBUQUERQUE    PTCLDY    54  47  77 SE6       30.14R
6HR MIN TEMP:  53; 6HR MAX TEMP:  58;

DOUBLE EAGLE   PTCLDY    48  46  93 CALM      30.16R
MORIARTY ARPT  FOG       44  43  95 CALM      30.19R VSB 1/4
6HR MIN TEMP:  43; 6HR MAX TEMP:  48;

CLINES CORNERS PTCLDY    44  43  96 W6        30.18S
6HR MIN TEMP:  45; 6HR MAX TEMP:  48;

BELEN          NOT AVBL
SOCORRO        FAIR      50  49  94 S5        30.13R
6HR MIN TEMP:  50; 6HR MAX TEMP:  54;


$$
NMZ524>526-539-540-221300-
SOUTHCENTRAL MOUNTAINS

CITY           SKY/WX    TMP DP  RH WIND       PRES   REMARKS
RUIDOSO        PTCLDY    46  45  93 W3        30.21S

$$
NMZ527>531-221300-
NORTHEAST HIGHLANDS/NORTHEAST PLAINS

CITY           SKY/WX    TMP DP  RH WIND       PRES   REMARKS
LAS VEGAS      PTCLDY    43  41  93 N6        30.17R
6HR MIN TEMP:  43; 6HR MAX TEMP:  49;

RATON          PTCLDY    47  45  93 NW6       30.11R
6HR MIN TEMP:  46; 6HR MAX TEMP:  51;

CLAYTON        PTCLDY    55  51  86 SW14      30.07S
6HR MIN TEMP:  53; 6HR MAX TEMP:  56;


$$
NMZ532>537-221300-
EASTCENTRAL PLAINS

CITY           SKY/WX    TMP DP  RH WIND       PRES   REMARKS
TUCUMCARI      MOCLDY    60  53  77 SW5       30.08S
6HR MIN TEMP:  58; 6HR MAX TEMP:  62;

CANNON AFB     NOT AVBL
CLOVIS AIRPORT CLOUDY    55  54  94 S5        30.14S

$$
NMZ028-029-538-221300-
SOUTHEAST PLAINS

CITY           SKY/WX    TMP DP  RH WIND       PRES   REMARKS
ROSWELL        FOG       59  58  96 S3        30.09R VSB 1/2
6HR MIN TEMP:  59; 6HR MAX TEMP:  62;

CARLSBAD       PTCLDY    60  58  92 SE5       30.07S FOG
6HR MIN TEMP:  60; 6HR MAX TEMP:  64;

HOBBS          CLOUDY    59  59 100 S3        30.12


$$



USA.gov is the U.S. government's official web portal to all federal, state and local government web resources and services.